When you browse on this site, cookies collect data to enhance your experience and personalize the content and advertising you see.
Visit our Privacy Policy to learn more. By continuing to use the site, you agree to this use of cookies and data.
  • în România
  • Lista ţărilor
  • Pe 7 zile
  • Temperatura apei
  • Hartă satelitară
  • Meteo pe hartă
  • Widget-uri
  • user-avatar
    Intrare

    Meteo pe oră la Melun

    Astăzi, 21 Aprilie, Duminică

    Timp Temperatura Precipitaţii Vânt Presiune Umiditate
    00:00 +16°C° 0 mm 2 m/s 761 mmHg 74%
    01:00 +15°C° 0 mm 2 m/s 760 mmHg 74%
    02:00 +15°C° 0 mm 2 m/s 760 mmHg 75%
    03:00 +14°C° 0 mm 2 m/s 759 mmHg 76%
    04:00 +14°C° 0 mm 2 m/s 759 mmHg 75%
    05:00 +14°C° 0 mm 2 m/s 759 mmHg 74%
    06:00 +14°C° 0 mm 2 m/s 759 mmHg 72%
    07:00 +16°C° 0 mm 2 m/s 759 mmHg 66%
    08:00 +18°C° 0 mm 2 m/s 758 mmHg 60%
    09:00 +20°C° 0 mm 3 m/s 758 mmHg 53%
    10:00 +21°C° 0 mm 3 m/s 758 mmHg 48%
    11:00 +24°C° 0 mm 3 m/s 758 mmHg 43%
    12:00 +25°C° 0 mm 4 m/s 757 mmHg 38%
    13:00 +25°C° 0 mm 4 m/s 757 mmHg 39%
    14:00 +25°C° 0 mm 4 m/s 756 mmHg 39%
    15:00 +25°C° 0 mm 4 m/s 755 mmHg 40%
    16:00 +24°C° 0 mm 3 m/s 755 mmHg 46%
    17:00 +22°C° 0 mm 3 m/s 755 mmHg 53%
    18:00 +20°C° 0 mm 2 m/s 754 mmHg 60%
    19:00 +19°C° 0 mm 2 m/s 754 mmHg 62%
    20:00 +18°C° 0 mm 2 m/s 754 mmHg 65%
    21:00 +17°C° 0 mm 2 m/s 754 mmHg 68%
    22:00 +16°C° 0 mm 2 m/s 754 mmHg 72%
    23:00 +15°C° 0 mm 2 m/s 754 mmHg 76%

    Mâine, 22 Aprilie, Luni

    Timp Temperatura Precipitaţii Vânt Presiune Umiditate
    00:00 +15°C° 0 mm 2 m/s 753 mmHg 80%
    01:00 +14°C° 0 mm 1 m/s 753 mmHg 83%
    02:00 +14°C° 0 mm 1 m/s 752 mmHg 85%
    03:00 +14°C° 0 mm 1 m/s 752 mmHg 88%
    04:00 +14°C° 0 mm 1 m/s 752 mmHg 88%
    05:00 +14°C° 0 mm 1 m/s 751 mmHg 87%
    06:00 +14°C° 0 mm 1 m/s 751 mmHg 87%
    07:00 +16°C° 0 mm 1 m/s 751 mmHg 78%
    08:00 +19°C° 0 mm 1 m/s 750 mmHg 70%
    09:00 +19°C° 0 mm 0 m/s 750 mmHg 61%
    10:00 +23°C° 0 mm 1 m/s 750 mmHg 55%
    11:00 +24°C° 0 mm 1 m/s 749 mmHg 49%
    12:00 +25°C° 0 mm 1 m/s 749 mmHg 43%
    13:00 +25°C° 0 mm 2 m/s 748 mmHg 43%
    14:00 +25°C° 0 mm 2 m/s 747 mmHg 44%
    15:00 +25°C° 0 mm 3 m/s 746 mmHg 45%
    16:00 +24°C° 0 mm 3 m/s 746 mmHg 52%
    17:00 +22°C° 0 mm 3 m/s 745 mmHg 59%
    18:00 +20°C° 0 mm 3 m/s 745 mmHg 66%
    19:00 +19°C° 0 mm 2 m/s 745 mmHg 69%
    20:00 +18°C° 0 mm 2 m/s 745 mmHg 72%
    21:00 +17°C° 0 mm 2 m/s 745 mmHg 75%
    22:00 +17°C° 0 mm 2 m/s 744 mmHg 77%
    23:00 +16°C° 0 mm 2 m/s 744 mmHg 79%

    Poimâine, 23 Aprilie, Marţi

    Timp Temperatura Precipitaţii Vânt Presiune Umiditate
    00:00 +16°C° 0 mm 2 m/s 744 mmHg 81%
    01:00 +15°C° 0 mm 1 m/s 743 mmHg 82%
    02:00 +14°C° 0 mm 1 m/s 743 mmHg 83%
    03:00 +14°C° 0 mm 1 m/s 743 mmHg 85%
    04:00 +14°C° 0 mm 1 m/s 743 mmHg 84%
    05:00 +14°C° 0 mm 1 m/s 743 mmHg 83%
    06:00 +14°C° 0 mm 1 m/s 743 mmHg 83%
    07:00 +15°C° 0 mm 1 m/s 743 mmHg 77%
    08:00 +18°C° 0 mm 1 m/s 743 mmHg 72%
    09:00 +20°C° 0 mm 1 m/s 743 mmHg 66%
    10:00 +21°C° 0 mm 1 m/s 743 mmHg 63%
    11:00 +22°C° 0 mm 1 m/s 743 mmHg 59%
    12:00 +23°C° 0 mm 2 m/s 742 mmHg 55%
    13:00 +23°C° 0.1 mm 2 m/s 742 mmHg 57%
    14:00 +22°C° 0.1 mm 1 m/s 742 mmHg 58%
    15:00 +22°C° 0.1 mm 1 m/s 742 mmHg 60%
    16:00 +21°C° 0 mm 1 m/s 741 mmHg 65%
    17:00 +21°C° 0 mm 1 m/s 741 mmHg 69%
    18:00 +19°C° 0 mm 2 m/s 741 mmHg 74%
    19:00 +18°C° 0.1 mm 2 m/s 741 mmHg 77%
    20:00 +17°C° 0.1 mm 2 m/s 742 mmHg 79%
    21:00 +16°C° 0.1 mm 2 m/s 742 mmHg 82%
    22:00 +16°C° 0 mm 2 m/s 742 mmHg 85%
    23:00 +15°C° 0 mm 2 m/s 742 mmHg 87%

    24 Aprilie, Miercuri

    Timp Temperatura Precipitaţii Vânt Presiune Umiditate
    00:00 +14°C° 0 mm 3 m/s 742 mmHg 89%
    01:00 +14°C° 0 mm 3 m/s 743 mmHg 89%
    02:00 +13°C° 0 mm 3 m/s 743 mmHg 90%
    03:00 +13°C° 0 mm 3 m/s 743 mmHg 90%
    04:00 +13°C° 0.2 mm 4 m/s 744 mmHg 89%
    05:00 +12°C° 0.2 mm 4 m/s 744 mmHg 89%
    06:00 +12°C° 0.2 mm 4 m/s 745 mmHg 88%
    07:00 +12°C° 0.1 mm 4 m/s 745 mmHg 86%
    08:00 +12°C° 0.1 mm 4 m/s 746 mmHg 84%
    09:00 +12°C° 0.1 mm 3 m/s 746 mmHg 82%
    10:00 +12°C° 0.3 mm 3 m/s 746 mmHg 81%
    11:00 +12°C° 0.3 mm 3 m/s 747 mmHg 80%
    12:00 +12°C° 0.3 mm 3 m/s 747 mmHg 80%
    13:00 +13°C° 0.4 mm 3 m/s 747 mmHg 76%
    14:00 +14°C° 0.4 mm 4 m/s 747 mmHg 73%
    15:00 +15°C° 0.4 mm 5 m/s 747 mmHg 70%
    16:00 +14°C° 0.1 mm 5 m/s 747 mmHg 71%
    17:00 +14°C° 0.1 mm 5 m/s 747 mmHg 73%
    18:00 +13°C° 0.1 mm 5 m/s 747 mmHg 74%
    19:00 +12°C° 0 mm 5 m/s 748 mmHg 75%
    20:00 +10°C° 0 mm 5 m/s 748 mmHg 77%
    21:00 +9°C° 0 mm 5 m/s 748 mmHg 78%
    22:00 +9°C° 0 mm 5 m/s 748 mmHg 77%
    23:00 +9°C° 0 mm 5 m/s 747 mmHg 76%

    25 Aprilie, Joi

    Timp Temperatura Precipitaţii Vânt Presiune Umiditate
    00:00 +9°C° 0 mm 5 m/s 747 mmHg 75%
    01:00 +10°C° 0.2 mm 5 m/s 747 mmHg 73%
    02:00 +10°C° 0.2 mm 5 m/s 747 mmHg 70%
    03:00 +10°C° 0.2 mm 5 m/s 746 mmHg 68%
    04:00 +10°C° 0.7 mm 5 m/s 747 mmHg 73%
    05:00 +10°C° 0.7 mm 5 m/s 747 mmHg 79%
    06:00 +10°C° 0.7 mm 6 m/s 747 mmHg 84%
    07:00 +10°C° 0.5 mm 6 m/s 748 mmHg 85%
    08:00 +10°C° 0.5 mm 5 m/s 748 mmHg 85%
    09:00 +10°C° 0.5 mm 5 m/s 749 mmHg 86%
    10:00 +10°C° 0.8 mm 5 m/s 749 mmHg 86%
    11:00 +10°C° 0.8 mm 5 m/s 749 mmHg 87%
    12:00 +11°C° 0.8 mm 4 m/s 749 mmHg 87%
    13:00 +11°C° 0.5 mm 4 m/s 750 mmHg 85%
    14:00 +10°C° 0.5 mm 5 m/s 750 mmHg 84%
    15:00 +10°C° 0.5 mm 5 m/s 750 mmHg 82%
    16:00 +10°C° 0.4 mm 5 m/s 751 mmHg 83%
    17:00 +10°C° 0.4 mm 5 m/s 752 mmHg 84%
    18:00 +9°C° 0.4 mm 6 m/s 752 mmHg 85%
    19:00 +8°C° 0 mm 5 m/s 753 mmHg 85%
    20:00 +8°C° 0 mm 5 m/s 753 mmHg 86%
    21:00 +7°C° 0 mm 5 m/s 753 mmHg 87%
    22:00 +7°C° 0 mm 5 m/s 754 mmHg 88%
    23:00 +7°C° 0 mm 5 m/s 754 mmHg 88%

    26 Aprilie, Vineri

    Timp Temperatura Precipitaţii Vânt Presiune Umiditate
    00:00 +7°C° 0 mm 5 m/s 754 mmHg 89%
    01:00 +7°C° 0 mm 5 m/s 754 mmHg 89%
    02:00 +7°C° 0 mm 6 m/s 754 mmHg 89%
    03:00 +7°C° 0 mm 6 m/s 755 mmHg 90%
    04:00 +7°C° 0 mm 6 m/s 755 mmHg 89%
    05:00 +7°C° 0 mm 6 m/s 755 mmHg 89%
    06:00 +7°C° 0 mm 6 m/s 756 mmHg 89%
    07:00 +8°C° 0.4 mm 7 m/s 756 mmHg 87%
    08:00 +9°C° 0.4 mm 7 m/s 756 mmHg 84%
    09:00 +10°C° 0.4 mm 8 m/s 757 mmHg 82%
    10:00 +11°C° 0.1 mm 8 m/s 757 mmHg 76%
    11:00 +12°C° 0.1 mm 8 m/s 757 mmHg 71%
    12:00 +15°C° 0.1 mm 8 m/s 758 mmHg 65%
    13:00 +15°C° 0.4 mm 8 m/s 758 mmHg 65%
    14:00 +15°C° 0.4 mm 7 m/s 758 mmHg 65%
    15:00 +15°C° 0.4 mm 7 m/s 758 mmHg 65%
    16:00 +14°C° 0.2 mm 6 m/s 759 mmHg 68%
    17:00 +13°C° 0.2 mm 5 m/s 759 mmHg 72%
    18:00 +13°C° 0.2 mm 4 m/s 760 mmHg 76%
    19:00 +12°C° 0 mm 4 m/s 760 mmHg 80%
    20:00 +11°C° 0 mm 4 m/s 761 mmHg 83%
    21:00 +8°C° 0 mm 4 m/s 762 mmHg 87%
    22:00 +8°C° 0 mm 4 m/s 762 mmHg 87%
    23:00 +8°C° 0 mm 4 m/s 762 mmHg 87%
    Arată mai mult